Location: Clarion
(42.7316°N, 93.7330°W)
Time: 00:54:54
(UTC+00:00)

NOSS 3-4 (C) - Pass Details

Date: 22 April 2026
Orbit: 773 x 1438 km, 63.4° (Epoch: 26 December)

Event Time Altitude Azimuth Distance (km) Brightness Sun altitude
Rises 01:26:10 0° 218° (SW) 3,235 6.5 -4.6°
Reaches altitude 10° 01:28:31 10° 220° (SW) 2,317 5.8 -5.0°
Maximum altitude 01:33:45 78° 307° (NW) 827 3.4 -5.9°
Drops below altitude 10° 01:39:29 10° 34° (NE) 2,528 5.6 -6.9°
Sets 01:42:08 0° 36° (NE) 3,553 6.3 -7.3°
